Location: Tafessasset
(32.5899°N, 5.4824°W)
Time: 05:44:15
(UTC+00:00)

SL-16 R/B - Pass Details

Date: 18 February 2020
Orbit: 843 x 847 km, 71.0° (Epoch: 07 April)

Event Time Altitude Azimuth Distance (km) Brightness Sun altitude
Exits shadow 04:29:04 19° 10° (N) 1,890 4.1 -33.0°
Drops below altitude 10° 04:30:39 10° 14° (NNE) 2,469 4.8 -32.6°
Sets 04:33:08 0° 17° (NNE) 3,406 5.6 -32.1°
